FDX9900 KIAH-KIND

Flight info

Callsign FDX9900
Flight time 2h 4m
Altitude 37000
Route INDIE8 TPAKK DCT LIT J131 PENBE DCT TERGE SMUKE3
Aircraft B77L/H-SDE1E2E3FGHIJ2J3J4J5M1RWXY/LB1D1

Departure

Time 2025-09-10 04:23
Airport George Bush Intercontinental Airport (KIAH)

Arrival

Time 2025-09-10 06:27
Airport Indianapolis International Airport (KIND)
Time Latitude Longitude Altitude Speed Heading
2025-09-10 03:48 29.99024 -95.33430 106 ft 0 kts 14°
2025-09-10 03:59 29.99041 -95.33425 110 ft 0 kts 14°
2025-09-10 04:00 29.99092 -95.33364 106 ft 8 kts 90°
2025-09-10 04:01 29.99091 -95.33195 106 ft 13 kts 90°
2025-09-10 04:01 29.99090 -95.33078 108 ft 16 kts 90°
2025-09-10 04:02 29.99179 -95.32925 106 ft 10 kts 89°
2025-09-10 04:02 29.99180 -95.32834 106 ft 3 kts 89°
2025-09-10 04:03 29.99179 -95.32737 106 ft 9 kts 91°
2025-09-10 04:03 29.99178 -95.32652 105 ft 12 kts 89°
2025-09-10 04:04 29.99232 -95.32539 106 ft 0 kts
2025-09-10 04:12 29.99334 -95.32590 105 ft 19 kts 293°
2025-09-10 04:12 29.99346 -95.32905 108 ft 21 kts 270°
2025-09-10 04:12 29.99344 -95.33074 108 ft 21 kts 269°
2025-09-10 04:13 29.99123 -95.33675 107 ft 18 kts 169°
2025-09-10 04:14 29.99090 -95.33619 109 ft 10 kts 97°
2025-09-10 04:14 29.99091 -95.33313 106 ft 22 kts 91°
2025-09-10 04:15 29.99090 -95.32950 106 ft 23 kts 90°
2025-09-10 04:15 29.99092 -95.32634 105 ft 12 kts 90°
2025-09-10 04:16 29.99106 -95.32557 109 ft 0 kts 49°
2025-09-10 04:18 29.99177 -95.32537 108 ft 9 kts
2025-09-10 04:22 29.99339 -95.33725 220 ft 200 kts 270°
2025-09-10 04:22 29.99292 -95.37378 2899 ft 241 kts 269°
2025-09-10 04:23 29.99246 -95.41446 5143 ft 264 kts 269°
2025-09-10 04:23 29.99206 -95.45848 7533 ft 282 kts 270°
2025-09-10 04:23 29.99210 -95.48129 8798 ft 287 kts 271°
2025-09-10 04:24 29.99313 -95.52872 10899 ft 310 kts 276°
2025-09-10 04:24 30.01533 -95.57299 12304 ft 344 kts 332°
2025-09-10 04:25 30.06173 -95.57826 15168 ft 347 kts 14°
2025-09-10 04:26 30.12040 -95.52579 18536 ft 382 kts 54°
2025-09-10 04:26 30.14809 -95.47262 20206 ft 391 kts 57°
2025-09-10 04:27 30.17735 -95.41836 21244 ft 403 kts 54°
2025-09-10 04:27 30.20884 -95.36413 22418 ft 410 kts 53°
2025-09-10 04:28 30.24117 -95.30904 23499 ft 418 kts 53°
2025-09-10 04:28 30.25748 -95.28099 23974 ft 422 kts 53°
2025-09-10 04:29 30.32058 -95.21113 26165 ft 425 kts 24°
2025-09-10 04:31 30.54159 -95.09487 30047 ft 457 kts 23°
2025-09-10 04:33 30.76472 -94.95507 32329 ft 474 kts 22°
2025-09-10 04:35 30.99559 -94.81258 37014 ft 468 kts 24°
2025-09-10 04:36 31.19279 -94.68446 37030 ft 465 kts 24°
2025-09-10 04:39 31.44741 -94.51809 37028 ft 466 kts 25°
2025-09-10 04:40 31.64369 -94.38327 37027 ft 468 kts 26°
2025-09-10 04:43 31.92318 -94.18757 37028 ft 468 kts 26°
2025-09-10 04:45 32.11900 -94.04972 37019 ft 469 kts 26°
2025-09-10 04:47 32.34278 -93.89133 37017 ft 470 kts 27°
2025-09-10 04:49 32.56704 -93.73167 37026 ft 470 kts 27°
2025-09-10 04:51 32.79134 -93.57103 37016 ft 471 kts 27°
2025-09-10 04:53 33.01598 -93.40916 37012 ft 472 kts 27°
2025-09-10 04:55 33.24093 -93.24627 37019 ft 474 kts 27°
2025-09-10 04:56 33.43784 -93.10282 37014 ft 475 kts 27°
2025-09-10 04:59 33.69189 -92.91658 37030 ft 476 kts 28°
2025-09-10 05:00 33.88986 -92.77055 37024 ft 477 kts 28°
2025-09-10 05:03 34.14459 -92.58147 37028 ft 478 kts 28°
2025-09-10 05:05 34.37054 -92.41258 37036 ft 478 kts 28°
2025-09-10 05:07 34.58753 -92.24934 37039 ft 441 kts 28°
2025-09-10 05:09 34.76916 -92.06673 37021 ft 449 kts 45°
2025-09-10 05:11 34.93930 -91.84675 37027 ft 448 kts 43°
2025-09-10 05:13 35.11091 -91.62544 37055 ft 449 kts 44°
2025-09-10 05:15 35.28167 -91.40374 37041 ft 447 kts 44°
2025-09-10 05:17 35.45176 -91.18145 37038 ft 447 kts 44°
2025-09-10 05:19 35.62126 -90.95846 37040 ft 448 kts 44°
2025-09-10 05:21 35.79119 -90.73340 37059 ft 448 kts 44°
2025-09-10 05:23 35.96011 -90.50815 37055 ft 448 kts 44°
2025-09-10 05:25 36.12878 -90.28172 37052 ft 448 kts 44°
2025-09-10 05:27 36.29701 -90.05430 37050 ft 447 kts 44°
2025-09-10 05:28 36.44373 -89.85460 37058 ft 447 kts 44°
2025-09-10 05:31 36.63192 -89.59665 37051 ft 448 kts 45°
2025-09-10 05:33 36.79852 -89.36664 37055 ft 448 kts 45°
2025-09-10 05:35 36.96486 -89.13532 37073 ft 447 kts 45°
2025-09-10 05:37 37.13071 -88.90304 37057 ft 447 kts 45°
2025-09-10 05:39 37.29610 -88.66973 37052 ft 447 kts 45°
2025-09-10 05:41 37.46096 -88.43549 37066 ft 447 kts 46°
2025-09-10 05:43 37.62538 -88.20018 37080 ft 448 kts 46°
2025-09-10 05:45 37.78937 -87.96401 37085 ft 448 kts 46°
2025-09-10 05:47 37.95729 -87.73263 35875 ft 441 kts 29°
2025-09-10 05:49 38.17120 -87.58786 28692 ft 420 kts 27°
2025-09-10 05:50 38.31736 -87.48134 23699 ft 391 kts 27°
2025-09-10 05:51 38.36400 -87.44742 22018 ft 381 kts 27°
2025-09-10 05:51 38.40979 -87.41406 21351 ft 379 kts 28°
2025-09-10 05:52 38.45487 -87.38116 21187 ft 374 kts 28°
2025-09-10 05:52 38.50020 -87.34803 21178 ft 376 kts 28°
2025-09-10 05:53 38.54558 -87.31482 21183 ft 376 kts 28°
2025-09-10 05:53 38.61358 -87.26496 21177 ft 376 kts 28°
2025-09-10 05:54 38.63625 -87.24832 21187 ft 376 kts 28°
2025-09-10 05:54 38.68155 -87.21488 21184 ft 376 kts 28°
2025-09-10 05:55 38.72677 -87.18121 21186 ft 376 kts 28°
2025-09-10 05:55 38.76439 -87.15317 21188 ft 376 kts 28°
2025-09-10 05:56 38.80966 -87.11942 21183 ft 375 kts 28°
2025-09-10 05:56 38.83201 -87.10274 20722 ft 369 kts 28°
2025-09-10 05:56 38.87547 -87.07025 19478 ft 353 kts 28°
2025-09-10 05:57 38.91731 -87.03899 17998 ft 344 kts 28°
2025-09-10 05:58 38.97817 -86.99381 15781 ft 329 kts 28°
2025-09-10 05:58 39.01828 -86.96501 15300 ft 331 kts 28°
2025-09-10 05:59 39.05804 -86.93638 14978 ft 326 kts 28°
2025-09-10 05:59 39.09735 -86.90792 14974 ft 325 kts 28°
2025-09-10 06:00 39.13648 -86.87867 14978 ft 325 kts 30°
2025-09-10 06:00 39.15583 -86.86351 14978 ft 326 kts 30°
2025-09-10 06:00 39.19423 -86.83340 14491 ft 319 kts 30°
2025-09-10 06:01 39.23172 -86.80418 13073 ft 311 kts 30°
2025-09-10 06:02 39.28648 -86.75901 12041 ft 311 kts 35°
2025-09-10 06:02 39.33828 -86.71050 11990 ft 308 kts 34°
2025-09-10 06:03 39.35572 -86.69445 11974 ft 307 kts 34°
2025-09-10 06:03 39.39038 -86.66266 11499 ft 305 kts 34°
2025-09-10 06:03 39.40676 -86.64572 11129 ft 303 kts 48°
2025-09-10 06:04 39.42759 -86.59781 10994 ft 308 kts 58°
2025-09-10 06:04 39.45253 -86.55318 10923 ft 301 kts 51°
2025-09-10 06:05 39.50158 -86.46930 10736 ft 280 kts 50°
2025-09-10 06:06 39.51382 -86.45009 10526 ft 274 kts 49°
2025-09-10 06:06 39.53828 -86.41195 10166 ft 277 kts 49°
2025-09-10 06:07 39.56265 -86.37348 9760 ft 275 kts 50°
2025-09-10 06:07 39.58672 -86.33517 9362 ft 273 kts 50°
2025-09-10 06:08 39.61061 -86.29697 8954 ft 272 kts 50°
2025-09-10 06:08 39.62239 -86.27786 8719 ft 272 kts 51°
2025-09-10 06:09 39.65757 -86.22055 7843 ft 264 kts 51°
2025-09-10 06:09 39.66888 -86.20222 7525 ft 250 kts 50°
2025-09-10 06:10 39.70451 -86.15639 6664 ft 239 kts 43°
2025-09-10 06:10 39.72815 -86.12651 6063 ft 239 kts 45°
2025-09-10 06:11 39.75209 -86.09664 5472 ft 238 kts 38°
2025-09-10 06:11 39.78055 -86.07537 5047 ft 231 kts 28°
2025-09-10 06:12 39.80917 -86.05563 4992 ft 235 kts 29°
2025-09-10 06:12 39.83803 -86.03506 4993 ft 235 kts 30°
2025-09-10 06:12 39.85237 -86.02467 4990 ft 235 kts 30°
2025-09-10 06:13 39.89531 -85.99333 4989 ft 235 kts 30°
2025-09-10 06:14 39.93822 -85.96194 4994 ft 236 kts 30°
2025-09-10 06:14 39.96680 -85.94101 4990 ft 236 kts 30°
2025-09-10 06:15 39.98108 -85.93054 4994 ft 237 kts 30°
2025-09-10 06:15 40.00963 -85.90960 4990 ft 236 kts 30°
2025-09-10 06:16 40.03993 -85.89616 4981 ft 235 kts 349°
2025-09-10 06:16 40.06058 -85.92489 5007 ft 231 kts 275°
2025-09-10 06:17 40.03989 -85.97462 4998 ft 214 kts 205°
2025-09-10 06:17 40.01247 -85.99109 4905 ft 220 kts 206°
2025-09-10 06:18 39.98532 -86.00901 4441 ft 219 kts 206°
2025-09-10 06:18 39.97177 -86.01797 4215 ft 219 kts 206°
2025-09-10 06:19 39.94487 -86.03566 4040 ft 217 kts 206°
2025-09-10 06:19 39.91776 -86.05329 3988 ft 217 kts 206°
2025-09-10 06:20 39.89127 -86.07051 4015 ft 209 kts 206°
2025-09-10 06:20 39.86728 -86.09023 3818 ft 201 kts 227°
2025-09-10 06:21 39.83993 -86.12782 3390 ft 187 kts 221°
2025-09-10 06:21 39.82138 -86.15034 3156 ft 177 kts 222°
2025-09-10 06:22 39.80385 -86.17231 2820 ft 172 kts 223°
2025-09-10 06:22 39.79546 -86.18294 2748 ft 165 kts 223°
2025-09-10 06:23 39.77981 -86.20285 2374 ft 154 kts 223°
2025-09-10 06:23 39.76480 -86.22200 1855 ft 149 kts 223°
2025-09-10 06:24 39.75029 -86.24052 1358 ft 145 kts 223°
2025-09-10 06:24 39.73558 -86.25941 1218 ft 149 kts 224°
2025-09-10 06:25 39.71442 -86.28659 808 ft 125 kts 216°
2025-09-10 06:25 39.70562 -86.29751 807 ft 66 kts 224°
2025-09-10 06:26 39.70278 -86.30112 801 ft 54 kts 224°
2025-09-10 06:26 39.70038 -86.30283 804 ft 9 kts 134°
2025-09-10 06:27 39.70014 -86.30154 802 ft 9 kts 42°
2025-09-10 06:27 39.70132 -86.30008 802 ft 15 kts 44°
2025-09-10 06:28 39.70302 -86.29791 805 ft 18 kts 44°
2025-09-10 06:28 39.70494 -86.29548 808 ft 20 kts 41°
2025-09-10 06:28 39.70625 -86.29465 806 ft 22 kts 26°
2025-09-10 06:29 39.70897 -86.29058 803 ft 10 kts 126°
2025-09-10 06:30 39.70783 -86.29027 802 ft 3 kts 265°
2025-09-10 06:30 39.70817 -86.29079 802 ft 0 kts 314°